Location: Rounton
(54.4000°N, 1.3500°W)
Time: 06:41:36
(UTC+01:00)

deb Agena D - Pass Details

Date: 11 June 2023
Orbit: 996 x 1023 km, 100.1° (Epoch: 29 September)

Event Time Altitude Azimuth Distance (km) Brightness Sun altitude
Exits shadow 01:11:44 16° 166° (SSE) 2,391 ? -12.5°
Maximum altitude 01:16:57 79° 253° (WSW) 1,027 ? -12.5°
Drops below altitude 10° 01:23:13 10° 340° (NNW) 2,779 ? -12.4°
Sets 01:25:42 0° 342° (NNW) 3,732 ? -12.4°
